TimeEST,TemperatureF,Dew PointF,Humidity,Sea Level PressureIn,VisibilityMPH,Wind Direction,Wind SpeedMPH,Gust SpeedMPH,PrecipitationIn,Events,Conditions,WindDirDegrees,DateUTC
12:15 AM,26.6,17.6,69,29.86,10.0,NW,16.1,19.6,N/A,Snow,Light Snow,310,2013-03-03 05:15:00
12:35 AM,26.6,15.8,64,29.85,10.0,NW,13.8,25.3,N/A,,Overcast,320,2013-03-03 05:35:00
12:55 AM,24.8,15.8,69,29.85,10.0,NW,17.3,21.9,N/A,,Overcast,320,2013-03-03 05:55:00
1:15 AM,24.8,15.8,69,29.86,10.0,NW,16.1,24.2,N/A,,Overcast,320,2013-03-03 06:15:00
1:35 AM,24.8,15.8,69,29.86,10.0,NW,19.6,25.3,N/A,,Overcast,320,2013-03-03 06:35:00
1:55 AM,24.8,15.8,69,29.86,10.0,NW,13.8,-,N/A,,Overcast,310,2013-03-03 06:55:00
2:15 AM,24.8,17.6,74,29.86,10.0,NW,16.1,23.0,N/A,Snow,Light Snow,310,2013-03-03 07:15:00
2:35 AM,24.8,17.6,74,29.85,10.0,WNW,12.7,18.4,N/A,Snow,Light Snow,300,2013-03-03 07:35:00
2:55 AM,24.8,17.6,74,29.85,10.0,WNW,16.1,24.2,N/A,Snow,Light Snow,300,2013-03-03 07:55:00
3:15 AM,24.8,15.8,69,29.84,10.0,WNW,15.0,21.9,N/A,,Overcast,300,2013-03-03 08:15:00
3:35 AM,24.8,15.8,69,29.84,10.0,NW,18.4,24.2,N/A,Snow,Light Snow,320,2013-03-03 08:35:00
3:55 AM,24.8,17.6,74,29.84,10.0,NW,13.8,23.0,N/A,Snow,Light Snow,310,2013-03-03 08:55:00
4:15 AM,24.8,15.8,69,29.84,10.0,NW,15.0,19.6,N/A,Snow,Light Snow,310,2013-03-03 09:15:00
4:35 AM,24.8,17.6,74,29.84,10.0,NW,16.1,24.2,N/A,Snow,Light Snow,310,2013-03-03 09:35:00
4:55 AM,24.8,15.8,69,29.84,10.0,NW,18.4,26.5,N/A,Snow,Light Snow,310,2013-03-03 09:55:00
5:15 AM,24.8,15.8,69,29.85,10.0,NW,16.1,21.9,N/A,Snow,Light Snow,320,2013-03-03 10:15:00
5:35 AM,24.8,15.8,69,29.84,10.0,NNW,12.7,16.1,N/A,,Overcast,330,2013-03-03 10:35:00
5:55 AM,24.8,15.8,69,29.85,10.0,NW,10.4,-,N/A,Snow,Light Snow,310,2013-03-03 10:55:00
6:15 AM,24.8,17.6,74,29.85,10.0,WNW,12.7,18.4,N/A,Snow,Light Snow,300,2013-03-03 11:15:00
6:35 AM,24.8,17.6,74,29.85,10.0,NW,16.1,20.7,N/A,Snow,Light Snow,320,2013-03-03 11:35:00
6:55 AM,24.8,17.6,74,29.86,10.0,WNW,15.0,18.4,N/A,Snow,Light Snow,300,2013-03-03 11:55:00
7:15 AM,24.8,17.6,74,29.86,7.0,NW,11.5,18.4,N/A,Snow,Light Snow,320,2013-03-03 12:15:00
7:35 AM,24.8,17.6,74,29.87,10.0,NW,8.1,16.1,N/A,Snow,Light Snow,310,2013-03-03 12:35:00
7:55 AM,24.8,17.6,74,29.87,10.0,NW,8.1,17.3,N/A,Snow,Light Snow,310,2013-03-03 12:55:00
8:15 AM,24.8,17.6,74,29.87,7.0,NW,17.3,21.9,N/A,Snow,Light Snow,320,2013-03-03 13:15:00
8:35 AM,24.8,17.6,74,29.88,10.0,NW,15.0,-,N/A,Snow,Light Snow,310,2013-03-03 13:35:00
8:55 AM,24.8,17.6,74,29.88,10.0,NW,15.0,20.7,N/A,Snow,Light Snow,320,2013-03-03 13:55:00
9:15 AM,24.8,17.6,74,29.88,7.0,NW,18.4,-,N/A,Snow,Light Snow,320,2013-03-03 14:15:00
9:35 AM,24.8,17.6,74,29.88,10.0,WNW,17.3,25.3,N/A,Snow,Light Snow,300,2013-03-03 14:35:00
9:55 AM,24.8,15.8,69,29.88,10.0,NW,13.8,21.9,N/A,,Overcast,320,2013-03-03 14:55:00
10:15 AM,26.6,15.8,64,29.87,10.0,NNW,18.4,26.5,N/A,,Overcast,330,2013-03-03 15:15:00
10:35 AM,26.6,15.8,64,29.87,10.0,NNW,16.1,21.9,N/A,,Overcast,330,2013-03-03 15:35:00
10:55 AM,26.6,15.8,64,29.87,10.0,NNW,17.3,-,N/A,,Overcast,330,2013-03-03 15:55:00
11:15 AM,26.6,15.8,64,29.88,10.0,NW,23.0,28.8,N/A,,Overcast,310,2013-03-03 16:15:00
11:35 AM,26.6,15.8,64,29.88,10.0,NW,15.0,23.0,N/A,,Overcast,320,2013-03-03 16:35:00
11:55 AM,28.4,15.8,59,29.87,10.0,NW,15.0,18.4,N/A,,Overcast,310,2013-03-03 16:55:00
12:15 PM,28.4,15.8,59,29.87,10.0,NW,13.8,23.0,N/A,,Overcast,310,2013-03-03 17:15:00
12:35 PM,28.4,15.8,59,29.87,10.0,NW,18.4,26.5,N/A,,Overcast,310,2013-03-03 17:35:00
12:55 PM,28.4,15.8,59,29.86,10.0,NW,12.7,21.9,N/A,,Overcast,320,2013-03-03 17:55:00
1:15 PM,28.4,15.8,59,29.86,10.0,NW,12.7,-,N/A,,Overcast,320,2013-03-03 18:15:00
1:35 PM,28.4,15.8,59,29.85,10.0,NW,13.8,23.0,N/A,,Overcast,310,2013-03-03 18:35:00
1:55 PM,28.4,15.8,59,29.85,10.0,WNW,12.7,-,N/A,,Overcast,300,2013-03-03 18:55:00
2:15 PM,28.4,15.8,59,29.85,10.0,NW,15.0,20.7,N/A,,Overcast,310,2013-03-03 19:15:00
2:35 PM,30.2,15.8,55,29.85,10.0,NW,15.0,20.7,N/A,,Overcast,310,2013-03-03 19:35:00
2:55 PM,30.2,15.8,55,29.85,10.0,West,13.8,25.3,N/A,,Overcast,280,2013-03-03 19:55:00
3:15 PM,30.2,15.8,55,29.85,10.0,NW,17.3,23.0,N/A,,Overcast,310,2013-03-03 20:15:00
3:35 PM,30.2,15.8,55,29.85,10.0,WNW,12.7,21.9,N/A,,Overcast,300,2013-03-03 20:35:00
3:55 PM,30.2,15.8,55,29.85,10.0,West,15.0,20.7,N/A,,Overcast,280,2013-03-03 20:55:00
4:35 PM,30.2,15.8,55,29.85,10.0,NW,20.7,25.3,N/A,,Overcast,310,2013-03-03 21:35:00
4:55 PM,30.2,17.6,60,29.86,10.0,WNW,13.8,21.9,N/A,,Overcast,290,2013-03-03 21:55:00
5:15 PM,28.4,17.6,64,29.87,10.0,NW,17.3,24.2,N/A,,Overcast,310,2013-03-03 22:15:00
5:35 PM,28.4,17.6,64,29.87,10.0,WNW,15.0,23.0,N/A,,Overcast,300,2013-03-03 22:35:00
5:55 PM,28.4,15.8,59,29.87,10.0,NW,17.3,27.6,N/A,,Overcast,320,2013-03-03 22:55:00
6:15 PM,28.4,17.6,64,29.88,10.0,WNW,15.0,25.3,N/A,Snow,Light Snow,290,2013-03-03 23:15:00
6:35 PM,28.4,17.6,64,29.89,10.0,NW,17.3,26.5,N/A,Snow,Light Snow,310,2013-03-03 23:35:00
6:55 PM,28.4,15.8,59,29.89,10.0,NW,15.0,24.2,N/A,,Overcast,310,2013-03-03 23:55:00
7:35 PM,26.6,15.8,64,29.90,10.0,WNW,19.6,24.2,N/A,,Overcast,300,2013-03-04 00:35:00
7:55 PM,26.6,15.8,64,29.90,10.0,WNW,19.6,25.3,N/A,,Mostly Cloudy,300,2013-03-04 00:55:00
8:15 PM,26.6,14.0,59,29.91,10.0,WNW,23.0,28.8,N/A,,Mostly Cloudy,300,2013-03-04 01:15:00
8:35 PM,26.6,14.0,59,29.90,10.0,NW,20.7,29.9,N/A,,Mostly Cloudy,310,2013-03-04 01:35:00
8:55 PM,26.6,17.6,69,29.91,10.0,WNW,20.7,26.5,N/A,Snow,Light Snow,300,2013-03-04 01:55:00
9:15 PM,26.6,14.0,59,29.91,10.0,NW,23.0,32.2,N/A,,Mostly Cloudy,310,2013-03-04 02:15:00
9:35 PM,24.8,12.2,59,29.91,10.0,NW,19.6,33.4,N/A,,Scattered Clouds,310,2013-03-04 02:35:00
9:55 PM,24.8,12.2,59,29.91,10.0,WNW,20.7,27.6,N/A,,Scattered Clouds,300,2013-03-04 02:55:00
10:15 PM,24.8,12.2,59,29.91,10.0,NW,18.4,25.3,N/A,,Clear,310,2013-03-04 03:15:00
10:35 PM,24.8,14.0,64,29.91,10.0,NW,20.7,26.5,N/A,,Scattered Clouds,310,2013-03-04 03:35:00
10:55 PM,24.8,15.8,69,29.91,10.0,NW,19.6,-,N/A,,Mostly Cloudy,320,2013-03-04 03:55:00
11:15 PM,24.8,15.8,69,29.91,10.0,NW,16.1,25.3,N/A,,Mostly Cloudy,310,2013-03-04 04:15:00
11:35 PM,24.8,15.8,69,29.91,10.0,NW,13.8,24.2,N/A,,Scattered Clouds,320,2013-03-04 04:35:00
11:55 PM,24.8,15.8,69,29.91,10.0,NW,18.4,25.3,N/A,,Scattered Clouds,310,2013-03-04 04:55:00